User: anonymous   Login
Location: Unspecified
(0.0000°N, 0.0000°E)
Time: 18:00:26
(UTC+00:00)
Language:

ONEWEB-0335 - Orbit

View from above orbital plane
View from above orbital plane
View from above satellite
View from above satellite

Ground track
Ground track

The orbit is defined by the following mean orbital elements,

1 49201U          26145.43416330 +.00000000 +00000-0 -24532-3 0 00001
2 49201  87.8942 324.7655 0001952  94.2728 265.8624 13.13468786    07
Epoch (UTC): 25 May 2026 10:25:11
Eccentricity: 0.0001952
inclination: 87.8942°
perigee height: 1208 km
apogee height: 1211 km
right ascension of ascending node: 324.7655°
argument of perigee: 94.2728°
revolutions per day: 13.13468786
mean anomaly at epoch: 265.8624°

The dashed part of the orbit path shows where the satellite is in the earth's shadow,  

DLR